Location: Dumpton Point
(51.3500°N, 1.4433°E)
Time: 04:49:52
(UTC+00:00)

Altair - Pass Details

Date: 09 October 2022
Orbit: 1501 x 1682 km, 47.2° (Epoch: 26 November)

Event Time Altitude Azimuth Distance (km) Brightness Sun altitude
Rises 08:11:42 0° 282° (WNW) 4,844 9.6 17.0°
Reaches altitude 10° 08:14:52 10° 278° (W) 3,878 9.2 17.4°
Maximum altitude 08:24:25 54° 205° (SSW) 1,972 8.5 18.6°
Drops below altitude 10° 08:34:08 10° 133° (SE) 3,941 12.0 19.8°
Sets 08:37:23 0° 128° (SE) 4,926 11.8 20.2°
